Content
SEND FEEDBACK

Daily
Averages
Monthly
Summary
French Polynesia

PAPEETE, FRENCH POLYNESIA


Home > Oceania > French Polynesia
Elevation: 7 feet     Latitude: 17 33S     Longitude: 149 36W

WEATHER
 
SELECT A DAY
Number of Records: 208,679;   Date Range: 6/30/96 - 8/10/14
 
SHARE

PRINT THIS DATA

[ ← Previous Day ]
WEATHER ALMANAC - APRIL 10, 2014
[ Next Day → ]
[ °C ]   °F
Weather ElementAverageHighLow
Temperature81.3 °F88 °F (2:00 pm)73.4 °F (5:30 am)
Dewpoint70.4 °F73.4 °F (10:00 am)66.2 °F (6:00 am)
Humidity68.8 %83 % (1:30 am)48 % (2:00 pm)
Barometer29.91 in29.97 in (11:00 pm)29.86 in (3:00 am)
Wind Speed3.9 mph12.7 mph (1:30 pm)
Weather ElementAverage
Visibility7.5 mi
Wind DirectionESE (95.9 °)

Weather ElementTotal
Precipitation---
Cooling Degree Days15.7 (Base 65)
Growing Degree Days30.7 (Base 50)
Averaged from 55 records on April 10, 2014
WEATHER CONDITIONS BREAKOUT
WIND DIRECTION BREAKOUT
WEATHER BY HOUR - APRIL 10, 2014
[ °C ]   °F
Local TimeTemperatureDewpointHumidityBarometerVisibilityWind DirectionWind SpeedGust SpeedPrecipitationEventsConditions
12:30 AM77.0 °F69.8 °F78 %29.89 in6.2 miVariable1.2 mphPartly Cloudy
1:00 AM77.0 °F69.8 °F78 %29.89 in6.2 miEast (80°)3.5 mphPartly Cloudy
1:30 AM75.2 °F69.8 °F83 %29.89 in6.2 miEast (100°)2.3 mphPartly Cloudy
2:00 AM75.0 °F70.0 °F79 %29.89 in12.0 miENE (60°)2.3 mphScattered Clouds
2:00 AM75.2 °F69.8 °F83 %29.89 in6.2 miVariable2.3 mphPartly Cloudy
2:30 AM75.2 °F69.8 °F83 %29.89 in6.2 miEast (90°)2.3 mphPartly Cloudy
3:00 AM75.2 °F69.8 °F83 %29.86 in6.2 miESE (110°)2.3 mphPartly Cloudy
3:30 AM75.2 °F69.8 °F83 %29.89 in6.2 miESE (120°)2.3 mph
4:00 AM75.2 °F68.0 °F78 %29.89 in6.2 miESE (120°)3.5 mph
4:30 AM75.2 °F68.0 °F78 %29.89 in6.2 miEast (90°)3.5 mph
5:00 AM74.0 °F68.0 °F76 %29.90 in37.0 miCalmClear
5:00 AM75.2 °F68.0 °F78 %29.89 in6.2 miCalm
5:30 AM73.4 °F68.0 °F83 %29.89 in6.2 miVariable2.3 mph
6:00 AM73.4 °F66.2 °F78 %29.92 in6.2 miEast (80°)4.6 mphScattered Clouds
6:30 AM75.2 °F66.2 °F73 %29.92 in6.2 miESE (120°)2.3 mphPartly Cloudy
7:00 AM77.0 °F68.0 °F74 %29.95 in6.2 miVariable3.5 mphScattered Clouds
7:30 AM80.6 °F69.8 °F70 %29.95 in6.2 miVariable2.3 mphScattered Clouds
8:00 AM82.0 °F71.0 °F61 %29.96 in12.0 miNorth (10°)2.3 mphPartly Cloudy
8:00 AM82.4 °F71.6 °F70 %29.95 in6.2 miVariable2.3 mphPartly Cloudy
8:30 AM82.4 °F69.8 °F66 %29.95 in6.2 miENE (60°)3.5 mphPartly Cloudy
9:00 AM84.2 °F69.8 °F62 %29.95 in6.2 miVariable3.5 mphPartly Cloudy
9:30 AM84.2 °F69.8 °F62 %29.95 in6.2 miNNW (330°)4.6 mphPartly Cloudy
10:00 AM84.2 °F73.4 °F70 %29.95 in6.2 miWest (280°)4.6 mphPartly Cloudy
10:30 AM84.2 °F71.6 °F66 %29.95 in6.2 miWSW (240°)5.8 mphPartly Cloudy
11:00 AM85.0 °F71.0 °F53 %29.95 in12.0 miSW (220°)6.9 mphScattered Clouds
11:00 AM86.0 °F69.8 °F58 %29.95 in6.2 miSW (220°)6.9 mphPartly Cloudy
11:30 AM86.0 °F69.8 °F58 %29.92 in6.2 miSW (220°)9.2 mphPartly Cloudy
12:00 PM86.0 °F71.6 °F62 %29.92 in6.2 miSW (230°)5.8 mphPartly Cloudy
12:30 PM87.8 °F71.6 °F58 %29.89 in6.2 miWest (280°)5.8 mphPartly Cloudy
1:00 PM87.8 °F71.6 °F58 %29.89 in6.2 miNNW (340°)6.9 mphPartly Cloudy
1:30 PM87.8 °F73.4 °F62 %29.89 in6.2 miNorth (350°)12.7 mphPartly Cloudy
2:00 PM88.0 °F71.0 °F48 %29.88 in12.0 miNorth (10°)9.2 mphScattered Clouds
2:00 PM87.8 °F71.6 °F58 %29.86 in6.2 miNorth (10°)9.2 mphPartly Cloudy
2:30 PM87.8 °F71.6 °F58 %29.86 in6.2 miNorth (10°)8.1 mphPartly Cloudy
3:00 PM87.8 °F69.8 °F55 %29.86 in6.2 miNNE (20°)6.9 mphPartly Cloudy
3:30 PM87.8 °F69.8 °F55 %29.86 in6.2 miNNE (30°)8.1 mphPartly Cloudy
4:00 PM86.0 °F69.8 °F58 %29.86 in6.2 miVariable2.3 mphPartly Cloudy
4:30 PM87.8 °F71.6 °F58 %29.86 in6.2 miVariable3.5 mphPartly Cloudy
5:00 PM86.0 °F71.0 °F53 %29.88 in12.0 miWSW (250°)4.6 mphScattered Clouds
5:00 PM86.0 °F71.6 °F62 %29.86 in6.2 miWSW (250°)4.6 mphPartly Cloudy
5:30 PM86.0 °F71.6 °F62 %29.89 in6.2 miVariable3.5 mphPartly Cloudy
6:00 PM84.2 °F71.6 °F66 %29.89 in6.2 miWSW (250°)5.8 mphScattered Clouds
6:30 PM82.4 °F69.8 °F66 %29.89 in6.2 miSW (220°)4.6 mphPartly Cloudy
7:00 PM82.4 °F71.6 °F70 %29.92 in6.2 miCalmScattered Clouds
7:30 PM80.6 °F71.6 °F74 %29.92 in6.2 miEast (100°)2.3 mphScattered Clouds
8:00 PM81.0 °F72.0 °F66 %29.95 in12.0 miEast (80°)2.3 mphPartly Cloudy
8:00 PM80.6 °F71.6 °F74 %29.95 in6.2 miVariable2.3 mphScattered Clouds
8:30 PM80.6 °F71.6 °F74 %29.95 in6.2 miVariable2.3 mphPartly Cloudy
9:00 PM80.6 °F71.6 °F74 %29.95 in6.2 miVariable3.5 mphScattered Clouds
9:30 PM80.6 °F71.6 °F74 %29.95 in6.2 miVariable2.3 mphPartly Cloudy
10:00 PM80.6 °F71.6 °F74 %29.95 in6.2 miCalmScattered Clouds
10:30 PM78.8 °F71.6 °F78 %29.95 in6.2 miVariable2.3 mphPartly Cloudy
11:00 PM78.0 °F71.0 °F72 %29.97 in12.0 miEast (100°)2.3 mphScattered Clouds
11:00 PM78.8 °F71.6 °F78 %29.95 in6.2 miVariable2.3 mphPartly Cloudy
11:30 PM78.8 °F69.8 °F74 %29.95 in6.2 miEast (100°)2.3 mphPartly Cloudy
Hourly data recorded from NTAA, located miles away from Papeete, French Polynesia







STORIES FROM OUR PARTNERS